This is the latest recevied weather packets stored in our database for station/object WE8L. If no packets are shown the sender has not sent any weather packets the latest 1 day(s).
| Time | Temp. | Humidity | Pressure | Rain* | Wind** | Luminosity | Snow |
|---|---|---|---|---|---|---|---|
| 1778050868 | 8.33° C | 99% | 1010.3 hPa | 4.32 mm | - | 0 W/m² | - |
| 1778049353 | 8.33° C | 99% | 1009.9 hPa | 0 mm | - | 0 W/m² | - |
| 1778049050 | 8.33° C | 99% | 1010.2 hPa | 0 mm | - | 0 W/m² | - |
| 1778048748 | 8.33° C | 99% | 1010.1 hPa | 1.78 mm | - | 0 W/m² | - |
| 1778048445 | 8.33° C | 99% | 1010.2 hPa | 1.78 mm | - | 0 W/m² | - |
| 1778048141 | 8.33° C | 99% | 1009.9 hPa | 1.27 mm | - | 0 W/m² | - |
| 1778047537 | 8.33° C | 99% | 1009.7 hPa | 3.05 mm | - | 0 W/m² | - |
| 1778047234 | 8.33° C | 99% | 1009.8 hPa | 3.05 mm | - | 0 W/m² | - |
| 1778046931 | 8.89° C | 99% | 1009.8 hPa | 4.83 mm | - | 0 W/m² | - |
| 1778046020 | 8.89° C | 99% | 1010 hPa | 4.83 mm | - | 0 W/m² | - |
| 1778045115 | 9.44° C | 99% | 1010.2 hPa | 3.05 mm | - | 0 W/m² | - |
| 1778044812 | 9.44° C | 99% | 1009.9 hPa | 4.83 mm | - | 0 W/m² | - |
| 1778044509 | 9.44° C | 99% | 1009.7 hPa | 4.83 mm | - | 0 W/m² | - |
| 1778044206 | 9.44° C | 99% | 1010 hPa | 7.87 mm | - | 0 W/m² | - |
| 1778043602 | 10° C | 99% | 1009.9 hPa | 6.1 mm | - | 0 W/m² | - |
| 1778043297 | 10° C | 99% | 1009.5 hPa | 8.89 mm | - | 0 W/m² | - |
| 1778042993 | 10° C | 99% | 1009.8 hPa | 10.67 mm | - | 0 W/m² | - |
| 1778042692 | 10° C | 99% | 1009.5 hPa | 7.87 mm | - | 0 W/m² | - |
| 1778042388 | 10° C | 99% | 1009.7 hPa | 3.05 mm | - | 0 W/m² | - |
| 1778041483 | 10.56° C | 99% | 1009.5 hPa | 4.83 mm | - | 0 W/m² | - |
| 1778041180 | 10.56° C | 99% | 1009.6 hPa | 4.83 mm | - | 0 W/m² | - |
| 1778040878 | 10.56° C | 99% | 1009.6 hPa | 7.87 mm | - | 0 W/m² | - |
| 1778040575 | 11.11° C | 99% | 1009.6 hPa | 13.72 mm | - | 0 W/m² | - |
| 1778040272 | 11.11° C | 99% | 1009.5 hPa | 8.89 mm | - | 0 W/m² | - |
| 1778039666 | 11.67° C | 99% | 1008.9 hPa | 3.05 mm | - | 0 W/m² | - |
* Rain latest hour (hover to see other rain measurements)
** Current wind speed in m/s (hover to see current wind gust speed)